Location: Jastrzębie Zdrój
(49.9551°N, 18.6138°E)
Time: 00:52:49
(UTC+02:00)

ISS - Visible Passes

Search period start: 21 September 2018 00:00
Search period end: 01 October 2018 00:00
Orbit: 403 x 408 km, 51.6° (Epoch: 21 September)

Date Brightness Start Highest point End Pass type
(mag) Time Alt. Az. Time Alt. Az. Time Alt. Az.
22 Sep -2.0 20:27:27 10° SSW 20:28:51 19° S 20:28:51 19° S visible
23 Sep -2.0 19:36:24 10° S 19:38:34 16° SE 19:39:37 15° ESE visible
23 Sep -1.4 21:11:22 10° WSW 21:12:20 18° WSW 21:12:20 18° WSW visible
24 Sep -3.5 20:19:38 10° SW 20:22:49 46° SSE 20:22:54 46° SSE visible
25 Sep -2.8 19:28:07 10° SSW 19:31:03 30° SSE 19:33:19 14° E visible
25 Sep -2.2 21:04:04 10° WSW 21:06:01 33° W 21:06:01 33° W visible
26 Sep -3.9 20:12:10 10° WSW 20:15:28 77° SSE 20:16:18 47° E visible
26 Sep -0.4 21:48:48 10° W 21:48:59 11° W 21:48:59 11° W visible
27 Sep -3.6 19:20:22 10° SW 19:23:36 54° SSE 19:26:29 12° ENE visible
27 Sep -2.5 20:56:50 10° W 20:59:10 41° WNW 20:59:10 41° WNW visible
28 Sep -3.8 20:04:50 10° W 20:08:09 75° NNW 20:09:17 38° ENE visible
28 Sep -0.5 21:41:31 10° WNW 21:41:57 13° WNW 21:41:57 13° WNW visible
29 Sep -3.8 19:12:53 10° WSW 19:16:12 87° SSE 19:19:20 11° ENE visible
29 Sep -2.7 20:49:33 10° W 20:52:00 43° WNW 20:52:00 43° WNW visible
30 Sep -3.6 19:57:32 10° W 20:00:50 63° N 20:02:01 34° ENE visible
30 Sep -0.6 21:34:09 10° WNW 21:34:41 14° WNW 21:34:41 14° WNW visible
